Date String (YYYY-MM-DD hh:mm:ss) UTC,Instrument flags,absolute air pressure of the measurement (hPa),sample flow rate (lpm),inlet stack bypass flow (lpm),air temperature of the measurement (°C),ambient temperature measured by the external sensor (°C),aerosol sample conditioner tube jacket temperature (°C),OPC LED temperature (°C),internal box temperature (°C),relative humidity of the measurement (%),span deviation,mass concentration of particles derived from Lorenz-Mie calculation of OPC scattering (μg/m³),mass concentration of particles derived from Lorenz-Mie calculation of OPC scattering (μg/m³),mass concentration of particles derived from Lorenz-Mie calculation of OPC scattering (μg/m³)
DateTimeUTC,F1_M11,P_M11,Q1_M11,Q2_M11,T1_M11,T2_M11,T3_M11,T4_M11,T5_M11,U1_M11,ZSPAN_M11,X2_M11,X0_M11,X1_M11
2023-11-05 21:00:00,SystemResetWarning,0824.4,4.99,000.00,027.4,026.1,000.0,035.6,028.9,9.2,0000.0,0002.13,0004.10,0001.75
2023-11-05 21:01:00,SystemResetWarning,0824.6,5.00,000.00,027.4,026.3,000.0,035.6,029.0,9.2,0000.0,0002.16,0004.61,0001.77
2023-11-05 21:02:00,SystemResetWarning,0824.7,5.00,000.00,027.5,026.4,000.0,035.6,029.1,9.4,0000.0,0002.11,0004.93,0001.75
2023-11-05 21:03:00,SystemResetWarning,0824.7,5.00,000.00,027.5,026.6,000.0,035.6,029.2,9.4,0000.0,0002.11,0007.35,0001.75
2023-11-05 21:04:00,SystemResetWarning,0824.7,5.00,000.00,027.6,026.7,000.0,035.7,029.2,9.3,0000.0,0002.09,0007.36,0001.74
2023-11-05 21:05:00,SystemResetWarning,0824.7,5.01,000.00,027.6,026.8,000.0,035.7,029.3,9.3,0000.0,0002.07,0007.19,0001.74
2023-11-05 21:06:00,SystemResetWarning,0824.6,5.01,000.00,027.7,026.9,000.0,035.7,029.3,9.3,0000.0,0002.13,0007.45,0001.75
2023-11-05 21:07:00,SystemResetWarning,0824.4,4.99,000.00,027.7,025.9,000.0,035.7,029.3,9.2,0000.0,0002.14,0007.50,0001.75
2023-11-05 21:08:00,SystemResetWarning,0824.6,5.01,000.00,027.6,024.0,000.0,035.7,028.9,9.2,0000.0,0002.15,0007.56,0001.75
2023-11-05 21:09:00,SystemResetWarning,0824.7,5.01,000.00,027.5,023.7,000.0,035.6,028.7,9.2,0000.0,0002.13,0007.57,0001.75
2023-11-05 21:10:00,SystemResetWarning,0824.7,5.00,000.00,027.4,024.1,000.0,035.6,028.4,9.2,0000.0,0002.11,0007.92,0001.74
2023-11-05 21:11:00,SystemResetWarning,0824.7,4.99,000.00,027.3,024.5,000.0,035.6,028.4,9.3,0000.0,0002.02,0007.74,0001.71
2023-11-05 21:12:00,SystemResetWarning,0824.8,5.01,000.00,027.3,024.9,000.0,035.5,028.5,9.5,0000.0,0001.98,0007.38,0001.70
2023-11-05 21:13:00,SystemResetWarning,0824.7,5.01,000.00,027.3,025.3,000.0,035.5,028.6,9.6,0000.0,0001.98,0007.20,0001.68
2023-11-05 21:14:00,SystemResetWarning,0824.7,5.00,000.00,027.3,025.5,000.0,035.5,028.7,9.5,0000.0,0001.97,0004.96,0001.67
2023-11-05 21:15:00,SystemResetWarning,0824.7,5.00,000.00,027.3,025.8,000.0,035.6,028.8,9.4,0000.0,0001.99,0005.98,0001.67
2023-11-05 21:16:00,SystemResetWarning,0824.8,5.00,000.00,027.4,026.0,000.0,035.6,028.9,9.4,0000.0,0002.00,0006.71,0001.66
2023-11-05 21:17:00,SystemResetWarning,0824.8,4.99,000.00,027.4,026.2,000.0,035.6,029.0,9.5,0000.0,0001.95,0006.25,0001.66
2023-11-05 21:18:00,SystemResetWarning,0824.7,5.01,000.00,027.4,026.4,000.0,035.6,029.0,9.4,0000.0,0001.92,0006.72,0001.65
2023-11-05 21:19:00,SystemResetWarning,0824.7,5.01,000.00,027.5,026.5,000.0,035.6,029.1,9.4,0000.0,0001.90,0006.63,0001.65
2023-11-05 21:20:00,SystemResetWarning,0824.8,5.00,000.00,027.5,026.6,000.0,035.6,029.1,9.4,0000.0,0001.93,0006.49,0001.65
2023-11-05 21:21:00,SystemResetWarning,0824.8,4.99,000.00,027.6,026.7,000.0,035.7,029.2,9.4,0000.0,0001.94,0005.81,0001.65
2023-11-05 21:22:00,SystemResetWarning,0824.8,4.99,000.00,027.6,025.5,000.0,035.7,029.2,9.4,0000.0,0001.97,0006.00,0001.65
2023-11-05 21:23:00,SystemResetWarning,0824.9,5.00,000.00,027.5,023.8,000.0,035.6,028.8,9.5,0000.0,0002.00,0006.08,0001.66
2023-11-05 21:24:00,SystemResetWarning,0824.7,5.01,000.00,027.4,023.6,000.0,035.6,028.6,9.7,0000.0,0002.04,0006.12,0001.67
2023-11-05 21:25:00,SystemResetWarning,0824.9,5.00,000.00,027.3,024.0,000.0,035.5,028.3,9.8,0000.0,0002.07,0006.18,0001.69
2023-11-05 21:26:00,SystemResetWarning,0824.7,4.99,000.00,027.2,024.4,000.0,035.5,028.3,9.8,0000.0,0002.08,0004.96,0001.70
2023-11-05 21:27:00,SystemResetWarning,0824.7,4.99,000.00,027.2,024.8,000.0,035.5,028.4,9.7,0000.0,0002.09,0004.19,0001.70
2023-11-05 21:28:00,SystemResetWarning,0824.7,5.01,000.00,027.2,025.1,000.0,035.5,028.5,9.7,0000.0,0002.13,0004.40,0001.69
2023-11-05 21:29:00,SystemResetWarning,0824.7,5.01,000.00,027.2,025.4,000.0,035.5,028.6,9.6,0000.0,0002.15,0004.00,0001.68
2023-11-05 21:30:00,SystemResetWarning,0824.8,5.00,000.00,027.2,025.7,000.0,035.5,028.7,9.6,0000.0,0002.20,0004.19,0001.69
2023-11-05 21:31:00,SystemResetWarning,0824.9,4.99,000.00,027.3,026.0,000.0,035.5,028.8,9.6,0000.0,0002.18,0004.16,0001.69
2023-11-05 21:32:00,SystemResetWarning,0824.8,4.99,000.00,027.3,026.2,000.0,035.5,028.9,9.7,0000.0,0002.22,0004.26,0001.70
2023-11-05 21:33:00,SystemResetWarning,0824.8,4.99,000.00,027.4,026.3,000.0,035.5,029.0,9.6,0000.0,0002.22,0004.16,0001.71
2023-11-05 21:34:00,SystemResetWarning,0824.8,5.00,000.00,027.4,026.5,000.0,035.5,029.1,9.5,0000.0,0002.24,0004.24,0001.71
2023-11-05 21:35:00,SystemResetWarning,0824.7,5.01,000.00,027.5,026.6,000.0,035.5,029.1,9.4,0000.0,0002.22,0004.43,0001.70
2023-11-05 21:36:00,SystemResetWarning,0824.9,5.01,000.00,027.5,026.7,000.0,035.6,029.2,9.4,0000.0,0002.21,0005.36,0001.69
2023-11-05 21:37:00,SystemResetWarning,0824.8,4.99,000.00,027.6,026.8,000.0,035.6,029.2,9.4,0000.0,0002.19,0006.18,0001.69
2023-11-05 21:38:00,SystemResetWarning,0824.7,4.99,000.00,027.6,025.6,000.0,035.6,029.2,9.4,0000.0,0002.20,0006.33,0001.69
2023-11-05 21:39:00,SystemResetWarning,0824.7,5.00,000.00,027.5,023.7,000.0,035.6,028.8,9.5,0000.0,0002.18,0006.29,0001.68
2023-11-05 21:40:00,SystemResetWarning,0824.7,5.02,000.00,027.4,023.5,000.0,035.5,028.6,9.5,0000.0,0002.14,0005.52,0001.68
2023-11-05 21:41:00,SystemResetWarning,0824.7,5.00,000.00,027.3,023.9,000.0,035.5,028.3,9.7,0000.0,0002.12,0005.45,0001.68
2023-11-05 21:42:00,SystemResetWarning,0824.7,4.99,000.00,027.2,024.3,000.0,035.5,028.3,9.6,0000.0,0002.10,0005.32,0001.68
2023-11-05 21:43:00,SystemResetWarning,0824.8,5.01,000.00,027.2,024.7,000.0,035.4,028.4,9.5,0000.0,0002.12,0005.40,0001.67
2023-11-05 21:44:00,SystemResetWarning,0824.8,5.00,000.00,027.2,025.1,000.0,035.4,028.5,9.6,0000.0,0002.11,0005.47,0001.67
2023-11-05 21:45:00,SystemResetWarning,0824.8,4.99,000.00,027.2,025.5,000.0,035.4,028.7,9.6,0000.0,0002.13,0005.65,0001.66
2023-11-05 21:46:00,SystemResetWarning,0824.7,5.00,000.00,027.2,025.7,000.0,035.4,028.8,9.6,0000.0,0002.10,0005.32,0001.66
2023-11-05 21:47:00,SystemResetWarning,0824.8,4.99,000.00,027.3,026.0,000.0,035.4,028.9,9.6,0000.0,0002.10,0004.65,0001.67
2023-11-05 21:48:00,SystemResetWarning,0824.8,5.00,000.00,027.3,026.2,000.0,035.5,029.0,9.6,0000.0,0002.12,0003.45,0001.67
2023-11-05 21:49:00,SystemResetWarning,0824.7,5.01,000.00,027.4,026.4,000.0,035.5,029.0,9.4,0000.0,0002.09,0003.33,0001.67
2023-11-05 21:50:00,SystemResetWarning,0824.8,5.00,000.00,027.4,026.5,000.0,035.5,029.1,9.5,0000.0,0002.09,0003.20,0001.67
2023-11-05 21:51:00,SystemResetWarning,0824.8,5.00,000.00,027.5,026.6,000.0,035.5,029.2,9.3,0000.0,0002.10,0003.25,0001.69
2023-11-05 21:52:00,SystemResetWarning,0824.9,5.00,000.00,027.5,026.8,000.0,035.6,029.2,9.3,0000.0,0002.13,0003.65,0001.69
2023-11-05 21:53:00,SystemResetWarning,0824.9,4.99,000.00,027.6,026.4,000.0,035.6,029.3,9.4,0000.0,0002.12,0004.50,0001.70
2023-11-05 21:54:00,SystemResetWarning,0824.9,4.98,000.00,027.5,024.4,000.0,035.6,029.0,9.6,0000.0,0002.08,0004.35,0001.71
2023-11-05 21:55:00,SystemResetWarning,0824.9,5.01,000.00,027.4,023.5,000.0,035.6,028.7,9.3,0000.0,0002.06,0004.25,0001.71
2023-11-05 21:56:00,SystemResetWarning,0824.9,5.00,000.00,027.3,023.8,000.0,035.5,028.5,9.4,0000.0,0002.04,0004.04,0001.72
2023-11-05 21:57:00,SystemResetWarning,0824.9,4.99,000.00,027.2,024.2,000.0,035.5,028.3,9.6,0000.0,0002.08,0004.16,0001.74
2023-11-05 21:58:00,SystemResetWarning,0824.9,5.01,000.00,027.2,024.6,000.0,035.5,028.4,9.4,0000.0,0002.09,0004.16,0001.74
2023-11-05 21:59:00,SystemResetWarning,0824.9,5.00,000.00,027.2,025.0,000.0,035.5,028.5,9.4,0000.0,0002.06,0003.99,0001.74
